Regional Weather Roundup
Issued by NWS

Home | Current Version | Previous Version | Graphics & Text | Print | Product List | Glossary On
Versions: 1 2 3 4 5 6 7 8 9 10 11 12 13 14 15 16 17 18 19 20 21 22 23 24 25 26 27 28 29 30 31 32 33 34 35 36 37 38 39 40 41 42 43 44 45 46 47 48 49 50
000
ASUS43 KFSD 281110
RWRSD

WEATHER ROUNDUP FOR SOUTH DAKOTA
NATIONAL WEATHER SERVICE SIOUX FALLS SD
600 AM CDT THU APR 28 2016

NOTE: "FAIR" INDICATES FEW OR NO CLOUDS BELOW 12,000 FEET WITH NO
SIGNIFICANT WEATHER AND/OR OBSTRUCTIONS TO VISIBILITY.


SDZ001>005-009-010-012>017-281200-
NORTHWEST AND NORTH CENTRAL SOUTH DAKOTA

CITY           SKY/WX    TMP DP  RH WIND       PRES   REMARKS
BUFFALO          N/A     34  32  92 N14       29.94R WCI  25
FAITH            N/A     32  30  92 N9        29.98R WCI  24
MOBRIDGE       CLOUDY    35  33  92 N3        29.97R
$$

SDZ012>016-024>037-041>051-057-063-072>074-281200-
SOUTHWEST AND SOUTH CENTRAL SOUTH DAKOTA

CITY           SKY/WX    TMP DP  RH WIND       PRES   REMARKS
RAPID CTY ARPT LGT SNOW  32  31  96 N13       29.97R FOG     WCI  22
PIERRE         CLOUDY    35  33  92 NE12      29.95R WCI  27
CUSTER         CLOUDY    27  22  81 VRB6      29.90R WCI  20
ELLSWORTH AFB  LGT SNOW  32  32 100 N10       29.96R FOG     WCI  24
PHILIP         CLOUDY    34  33  96 N10       29.97R WCI  26
PINE RIDGE     CLOUDY    32  29  88 N8        29.95S WCI  25
WINNER         LGT RAIN  39  36  89 N13       29.92R FOG
$$

SDZ004>011-016>023-039-040-281200-
NORTHEAST SOUTH DAKOTA

CITY           SKY/WX    TMP DP  RH WIND       PRES   REMARKS
ABERDEEN       CLOUDY    38  33  82 NE10      29.96R
WATERTOWN      CLOUDY    37  29  72 NE13      29.89R
SISSETON         N/A     38  31  76 E12       29.95R
$$

SDZ017-020-022-023-036>040-048>070-281200-
SOUTHEAST SOUTH DAKOTA

CITY           SKY/WX    TMP DP  RH WIND       PRES   REMARKS
SIOUX FALLS    LGT RAIN  40  37  89 NE13      29.82R
HURON          CLOUDY    38  35  89 NE13      29.91R
CHAMBERLAIN    CLOUDY    37  37  99 N12       29.92R
MITCHELL       LGT RAIN  39  38  96 N13       29.89R
YANKTON        CLOUDY    41  37  87 N9        29.83R
$$

ABBREVIATIONS USED IN REMARKS
   TC - TEMPERATURE IN CELSIUS
  WCI - WIND CHILL INDEX
   HX - HEAT INDEX
  VSB - VISIBILITY





USA.gov is the U.S. government's official web portal to all federal, state and local government web resources and services.